FW6002 Weather Reports


Display with metric or nautical units.
time (UTC)temp
F
wind
direction
speed
MPH
gust
MPH
rain 1hr
in
rain 24hr
in
rain mn
in
humidity
%
barometer
mb
20260905055558 81 0 0.0 2.0 0.00 0.15 0.00 71 1013.5
20260905055058 81 0 0.0 3.0 0.00 0.15 0.00 71 1013.5
20260905054620 82 0 0.0 3.0 0.00 0.15 0.00 71 1013.4
20260905054054 82 0 0.0 2.0 0.00 0.15 0.00 70 1013.4
20260905053556 82 0 0.0 2.0 0.00 0.15 0.00 70 1013.4
20260905053117 82 0 0.0 2.0 0.00 0.15 0.00 70 1013.3
20260905052556 82 0 0.0 2.0 0.00 0.15 0.00 69 1013.3
20260905052054 82 0 0.0 3.0 0.00 0.15 0.00 69 1013.3
20260905051601 83 0 0.0 4.0 0.00 0.15 0.00 69 1013.1
20260905051053 83 193 0.0 4.0 0.00 0.15 0.00 68 1013.1
20260905050557 83 0 0.0 3.0 0.00 0.15 0.00 68 1013.1
20260905045553 83 0 0.0 5.0 0.00 0.15 0.15 67 1013.1
20260905045053 83 28 1.0 5.0 0.00 0.15 0.15 67 1012.9
20260905044607 84 55 1.0 5.0 0.00 0.15 0.15 67 1013.0
20260905044054 84 0 1.0 4.0 0.00 0.15 0.15 66 1013.0
20260905043554 84 84 1.0 4.0 0.00 0.15 0.15 66 1013.0
20260905043111 84 38 1.0 5.0 0.00 0.15 0.15 66 1013.0
20260905042557 84 55 1.0 5.0 0.00 0.15 0.15 65 1013.0
20260905042054 84 130 1.0 5.0 0.00 0.15 0.15 65 1013.0
20260905041602 85 0 1.0 5.0 0.00 0.15 0.15 64 1013.0
20260905041057 85 0 1.0 4.0 0.00 0.15 0.15 64 1013.1
20260905040553 85 65 1.0 4.0 0.00 0.15 0.15 64 1013.1
20260905040105 85 14 1.0 4.0 0.00 0.15 0.15 63 1013.0
20260905035554 85 49 1.0 6.0 0.00 0.15 0.15 63 1012.9
20260905035054 85 50 1.0 6.0 0.00 0.15 0.15 63 1013.1
20260905034606 86 182 2.0 6.0 0.00 0.15 0.15 62 1013.2
20260905034053 86 213 1.0 5.0 0.00 0.15 0.15 62 1013.2
20260905033553 86 169 1.0 5.0 0.00 0.15 0.15 61 1013.1
20260905033102 86 38 1.0 5.0 0.00 0.15 0.15 61 1013.2
20260905032557 86 52 1.0 5.0 0.00 0.15 0.15 60 1013.1
20260905032054 86 84 1.0 4.0 0.00 0.15 0.15 60 1013.0
20260905031604 87 137 1.0 7.0 0.00 0.15 0.15 59 1013.0
20260905031057 87 44 1.0 7.0 0.00 0.15 0.15 59 1013.0
20260905030556 87 0 2.0 5.0 0.00 0.15 0.15 58 1012.9
20260905030104 87 49 2.0 5.0 0.00 0.15 0.15 58 1012.9
20260905025556 87 180 1.0 4.0 0.00 0.15 0.15 58 1012.7
20260905025056 87 85 1.0 4.0 0.00 0.15 0.15 57 1012.7
20260905024605 87 55 1.0 4.0 0.00 0.15 0.15 57 1012.6
20260905024056 88 47 1.0 4.0 0.00 0.15 0.15 57 1012.4
20260905023556 88 42 1.0 4.0 0.00 0.15 0.15 57 1012.5
20260905023104 88 0 0.0 4.0 0.00 0.15 0.15 56 1012.3
20260905022555 88 213 1.0 7.0 0.00 0.15 0.15 56 1012.2
20260905022057 89 0 1.0 7.0 0.00 0.15 0.15 56 1012.3
20260905021603 89 31 0.0 4.0 0.00 0.15 0.15 55 1012.1
20260905021058 89 71 1.0 4.0 0.00 0.15 0.15 55 1012.1
20260905020559 89 70 1.0 4.0 0.00 0.15 0.15 55 1012.1
20260905020105 89 50 1.0 4.0 0.00 0.15 0.15 55 1011.9
20260905015556 89 102 1.0 4.0 0.00 0.15 0.15 55 1011.9
20260905015056 89 22 1.0 4.0 0.00 0.15 0.15 55 1012.0
20260905014605 89 40 0.0 3.0 0.00 0.15 0.15 55 1011.9
20260905014056 90 193 0.0 3.0 0.00 0.15 0.15 55 1011.8
20260905013555 90 46 0.0 3.0 0.00 0.15 0.15 54 1011.7
20260905013105 90 33 1.0 3.0 0.00 0.15 0.15 54 1011.7
20260905012557 90 84 0.0 3.0 0.00 0.15 0.15 54 1011.6
20260905012056 90 262 0.0 4.0 0.00 0.15 0.15 53 1011.5
20260905011620 91 0 0.0 4.0 0.00 0.15 0.15 53 1011.5
20260905011055 91 184 0.0 4.0 0.00 0.15 0.15 52 1011.3
20260905010556 91 67 0.0 3.0 0.00 0.15 0.15 52 1011.3
20260905010105 92 0 1.0 3.0 0.00 0.15 0.15 51 1011.4
20260905005556 92 84 1.0 4.0 0.00 0.15 0.15 51 1011.2
20260905005056 92 96 0.0 4.0 0.00 0.15 0.15 51 1011.1
20260905004607 92 10 0.0 3.0 0.00 0.15 0.15 50 1011.1
20260905004056 93 65 1.0 5.0 0.00 0.15 0.15 49 1011.1
20260905003556 93 0 0.0 5.0 0.00 0.15 0.15 49 1011.0
20260905003102 93 70 1.0 5.0 0.00 0.15 0.15 49 1011.0
20260905002555 94 40 1.0 6.0 0.00 0.15 0.15 49 1010.9
20260905002059 94 101 2.0 6.0 0.00 0.15 0.15 48 1010.9
20260905001612 94 69 2.0 6.0 0.00 0.15 0.15 48 1010.9
20260905001055 94 209 1.0 6.0 0.00 0.15 0.15 48 1010.7
20260905000559 95 80 1.0 6.0 0.00 0.15 0.15 48 1010.7
20260905000110 95 121 2.0 6.0 0.00 0.15 0.15 47 1010.7
20260904235556 95 88 1.0 4.0 0.00 0.15 0.15 47 1010.7
20260904235055 95 360 1.0 6.0 0.00 0.15 0.15 47 1010.7
20260904234607 95 57 1.0 6.0 0.00 0.15 0.15 46 1010.5
20260904234058 96 71 1.0 6.0 0.00 0.15 0.15 46 1010.6
20260904233559 96 92 1.0 5.0 0.00 0.15 0.15 46 1010.5
20260904233107 96 57 1.0 5.0 0.00 0.15 0.15 46 1010.6
20260904232556 96 87 0.0 4.0 0.00 0.15 0.15 45 1010.6
20260904232059 96 58 1.0 5.0 0.00 0.15 0.15 45 1010.5
20260904231607 97 229 1.0 6.0 0.00 0.15 0.15 44 1010.6
20260904231055 96 176 1.0 6.0 0.00 0.15 0.15 43 1010.6
20260904230555 97 70 2.0 5.0 0.00 0.15 0.15 43 1010.6
20260904230101 97 0 1.0 4.0 0.00 0.15 0.15 43 1010.4
20260904225556 97 306 1.0 6.0 0.00 0.15 0.15 42 1010.6
20260904225056 97 281 2.0 6.0 0.00 0.15 0.15 43 1010.6
20260904224606 97 123 1.0 6.0 0.00 0.15 0.15 43 1010.6
20260904224056 98 0 1.0 7.0 0.00 0.15 0.15 42 1010.6
20260904223556 98 236 1.0 7.0 0.00 0.15 0.15 43 1010.5
20260904223103 98 60 1.0 5.0 0.00 0.15 0.15 42 1010.5
20260904222555 98 165 2.0 5.0 0.00 0.15 0.15 43 1010.5
20260904222056 98 84 1.0 4.0 0.00 0.15 0.15 43 1010.7
20260904221605 98 62 1.0 4.0 0.00 0.15 0.15 42 1010.8
20260904221056 98 68 1.0 7.0 0.00 0.15 0.15 42 1010.7
20260904220556 98 162 2.0 7.0 0.00 0.15 0.15 42 1010.8
20260904220111 98 167 1.0 6.0 0.00 0.15 0.15 42 1010.9
20260904215555 99 68 1.0 6.0 0.00 0.15 0.15 42 1010.8
20260904215056 98 202 1.0 4.0 0.00 0.15 0.15 42 1010.9
20260904214603 98 170 1.0 5.0 0.00 0.15 0.15 43 1010.9
20260904214057 98 0 1.0 6.0 0.00 0.15 0.15 43 1010.9
20260904213556 98 94 1.0 6.0 0.00 0.15 0.15 41 1011.1
20260904213104 98 100 1.0 4.0 0.00 0.15 0.15 43 1011.2
20260904212558 97 107 1.0 5.0 0.00 0.15 0.15 45 1011.3
20260904212056 97 82 1.0 8.0 0.00 0.15 0.15 45 1011.3
20260904211606 99 69 2.0 8.0 0.00 0.15 0.15 44 1011.4
20260904211055 99 231 1.0 5.0 0.00 0.15 0.15 44 1011.5
20260904210555 98 217 1.0 5.0 0.00 0.15 0.15 46 1011.4
20260904210104 96 202 0.0 8.0 0.00 0.15 0.15 48 1011.4
20260904205558 97 52 2.0 8.0 0.00 0.15 0.15 46 1011.7
20260904205056 98 71 1.0 7.0 0.00 0.15 0.15 46 1011.4
20260904204620 98 145 1.0 7.0 0.00 0.15 0.15 48 1011.6
20260904204056 98 0 2.0 7.0 0.00 0.15 0.15 45 1011.6
20260904203556 99 352 0.0 6.0 0.00 0.15 0.15 47 1011.6
20260904203108 98 89 1.0 6.0 0.00 0.15 0.15 46 1011.8
20260904202555 98 73 1.0 6.0 0.00 0.15 0.15 47 1011.9
20260904202055 97 10 0.0 6.0 0.00 0.15 0.15 49 1011.9
20260904201632 97 352 2.0 6.0 0.00 0.15 0.15 47 1012.0
20260904201055 98 209 2.0 8.0 0.00 0.15 0.15 47 1012.1
20260904200555 98 201 1.0 8.0 0.00 0.15 0.15 48 1012.2
20260904200110 97 46 2.0 8.0 0.00 0.15 0.15 49 1012.3
20260904195555 98 0 2.0 8.0 0.00 0.15 0.15 50 1012.4
20260904195102 98 246 2.0 6.0 0.00 0.15 0.15 49 1012.5
20260904194605 98 53 2.0 5.0 0.00 0.15 0.15 48 1012.6
20260904194056 99 96 0.0 5.0 0.00 0.15 0.15 47 1012.4
20260904193556 98 146 1.0 8.0 0.00 0.15 0.15 49 1012.6
20260904193111 99 61 1.0 8.0 0.00 0.15 0.15 47 1012.7
20260904192555 98 83 2.0 8.0 0.00 0.15 0.15 51 1012.7
20260904192100 98 254 1.0 5.0 0.00 0.15 0.15 49 1012.7
20260904191602 98 64 1.0 5.0 0.00 0.15 0.15 50 1012.8
20260904191055 97 179 1.0 4.0 0.00 0.15 0.15 51 1012.9
20260904190557 96 46 1.0 5.0 0.00 0.15 0.15 49 1013.1
20260904185555 96 34 2.0 5.0 0.00 0.15 0.15 49 1013.3
20260904185057 95 86 1.0 4.0 0.00 0.15 0.15 50 1013.3
20260904184605 94 40 1.0 4.0 0.00 0.15 0.15 51 1013.2
20260904184056 93 217 1.0 4.0 0.00 0.15 0.15 52 1013.6
20260904183556 92 162 1.0 4.0 0.00 0.15 0.15 52 1013.6
20260904183118 92 76 1.0 3.0 0.00 0.15 0.15 55 1013.6
20260904182555 92 52 0.0 2.0 0.00 0.15 0.15 55 1013.6
20260904182054 93 96 1.0 2.0 0.00 0.15 0.15 58 1013.7
20260904181610 91 80 0.0 2.0 0.00 0.15 0.15 59 1013.7
20260904181100 90 0 0.0 3.0 0.00 0.15 0.15 60 1013.7
20260904180555 90 75 0.0 4.0 0.00 0.15 0.15 58 1013.8
20260904180118 91 21 0.0 4.0 0.00 0.15 0.15 59 1013.8
20260904175555 90 0 1.0 4.0 0.00 0.15 0.15 57 1014.1
20260904175055 91 0 0.0 2.0 0.00 0.15 0.15 59 1014.2
20260904174611 90 119 0.0 5.0 0.00 0.15 0.15 58 1014.1
20260904174054 90 0 1.0 5.0 0.00 0.15 0.15 59 1014.3
20260904173554 91 86 1.0 3.0 0.00 0.15 0.15 57 1014.4
20260904173125 91 46 0.0 3.0 0.00 0.15 0.15 59 1014.5
20260904172555 91 46 0.0 3.0 0.00 0.15 0.15 60 1014.5
20260904172055 90 90 1.0 3.0 0.00 0.15 0.15 64 1014.4
20260904171608 89 42 0.0 3.0 0.00 0.15 0.15 70 1014.6
20260904171056 88 37 0.0 4.0 0.00 0.15 0.15 70 1014.6
20260904170559 86 0 0.0 4.0 0.00 0.15 0.15 75 1014.7
20260904170110 85 53 0.0 4.0 0.04 0.15 0.15 78 1014.7
20260904165555 85 82 1.0 4.0 0.05 0.15 0.15 79 1014.9
20260904165056 85 0 1.0 4.0 0.11 0.15 0.15 82 1014.8
20260904164615 83 0 0.0 2.0 0.12 0.15 0.15 87 1014.6
20260904164055 82 0 0.0 2.0 0.13 0.15 0.15 87 1014.8
20260904163552 81 0 0.0 2.0 0.14 0.15 0.15 91 1014.8
20260904163110 79 0 0.0 2.0 0.15 0.15 0.15 93 1014.8
20260904162556 78 43 0.0 2.0 0.15 0.15 0.15 91 1015.0
20260904162055 78 0 0.0 1.0 0.15 0.15 0.15 93 1014.9
20260904161619 78 0 0.0 1.0 0.15 0.15 0.15 92 1015.0
20260904161055 78 0 0.0 1.0 0.15 0.15 0.15 92 1014.9
20260904160557 77 0 0.0 1.0 0.14 0.14 0.14 91 1015.0
20260904160112 77 0 0.0 1.0 0.11 0.11 0.11 91 1015.1
20260904155556 78 0 0.0 1.0 0.10 0.10 0.10 90 1015.1
20260904155056 78 0 0.0 3.0 0.04 0.04 0.04 89 1014.9
20260904154612 78 0 0.0 3.0 0.03 0.03 0.03 88 1015.0
20260904154056 78 246 0.0 3.0 0.02 0.02 0.02 86 1015.0
20260904153556 79 0 0.0 8.0 0.01 0.01 0.01 84 1015.0
20260904153126 80 0 1.0 8.0 0.00 0.00 0.00 81 1014.9
20260904152555 81 0 0.0 4.0 0.00 0.00 0.00 80 1014.6
20260904152055 80 133 1.0 3.0 0.00 0.00 0.00 80 1014.8
20260904151625 80 217 1.0 4.0 0.00 0.00 0.00 80 1014.7
20260904151055 80 61 1.0 4.0 0.00 0.00 0.00 80 1014.6
20260904150556 80 302 0.0 3.0 0.00 0.00 0.00 83 1014.6
20260904150105 80 0 0.0 3.0 0.00 0.00 0.00 85 1014.7
20260904145556 80 0 1.0 3.0 0.00 0.00 0.00 85 1014.6
20260904145055 80 50 0.0 3.0 0.00 0.00 0.00 86 1014.6
20260904144622 79 201 1.0 3.0 0.00 0.00 0.00 86 1014.7
20260904144056 80 138 0.0 5.0 0.00 0.00 0.00 86 1014.6
20260904143556 79 65 0.0 5.0 0.00 0.00 0.00 87 1014.4
20260904143107 79 0 1.0 3.0 0.00 0.00 0.00 87 1014.5
20260904142557 79 0 0.0 2.0 0.00 0.00 0.00 88 1014.5
20260904142055 79 0 0.0 2.0 0.00 0.00 0.00 88 1014.5
20260904141606 79 64 0.0 2.0 0.00 0.00 0.00 88 1014.5
20260904141056 79 0 0.0 3.0 0.00 0.00 0.00 88 1014.7
20260904140556 79 140 0.0 3.0 0.00 0.00 0.00 88 1014.7
20260904140106 79 213 0.0 2.0 0.00 0.00 0.00 88 1014.5
20260904135600 79 0 0.0 2.0 0.00 0.00 0.00 88 1014.3
20260904135055 79 0 0.0 3.0 0.00 0.00 0.00 88 1014.3
20260904134608 79 0 0.0 3.0 0.00 0.00 0.00 88 1014.4
20260904134056 79 0 0.0 4.0 0.00 0.00 0.00 88 1014.2
20260904133557 79 0 1.0 4.0 0.00 0.00 0.00 88 1014.2
20260904133103 79 0 1.0 4.0 0.00 0.00 0.00 87 1014.1
20260904132556 79 77 1.0 3.0 0.00 0.00 0.00 87 1014.2
20260904132059 78 63 0.0 3.0 0.00 0.00 0.00 87 1014.2
20260904131605 78 227 1.0 4.0 0.00 0.00 0.00 87 1014.2
20260904131058 78 44 1.0 4.0 0.00 0.00 0.00 87 1014.1
20260904130556 78 90 1.0 4.0 0.00 0.00 0.00 87 1013.9
20260904130109 78 174 1.0 4.0 0.00 0.00 0.00 88 1013.8
20260904125556 78 0 1.0 4.0 0.00 0.00 0.00 88 1013.6
20260904125059 78 204 0.0 2.0 0.00 0.00 0.00 88 1013.5
20260904124614 78 0 0.0 2.0 0.00 0.00 0.00 88 1013.5
20260904124059 78 0 0.0 3.0 0.00 0.00 0.00 88 1013.7
20260904123557 78 214 0.0 3.0 0.00 0.00 0.00 88 1013.7
20260904123106 78 0 0.0 2.0 0.00 0.00 0.00 87 1013.3
20260904122557 78 116 0.0 2.0 0.00 0.00 0.00 87 1013.2
20260904122058 78 0 0.0 2.0 0.00 0.00 0.00 87 1013.1
20260904121607 77 78 0.0 2.0 0.00 0.00 0.00 87 1013.1
20260904121100 77 0 0.0 3.0 0.00 0.00 0.00 87 1013.1
20260904120556 77 0 0.0 3.0 0.00 0.00 0.00 87 1013.0
20260904120132 77 38 0.0 3.0 0.00 0.00 0.00 87 1012.9
20260904115557 77 0 0.0 2.0 0.00 0.00 0.00 87 1012.9
20260904115056 77 0 0.0 2.0 0.00 0.00 0.00 87 1013.0
20260904114608 77 0 0.0 2.0 0.00 0.00 0.00 87 1013.0
20260904114056 78 53 0.0 3.0 0.00 0.00 0.00 87 1012.9
20260904113555 78 0 0.0 3.0 0.00 0.00 0.00 87 1012.9
20260904113107 78 0 0.0 2.0 0.00 0.00 0.00 87 1012.9
20260904112600 78 59 0.0 2.0 0.00 0.00 0.00 87 1012.8
20260904112101 78 0 0.0 2.0 0.00 0.00 0.00 87 1012.8
20260904111612 78 112 0.0 3.0 0.00 0.00 0.00 87 1012.8
20260904111057 78 90 1.0 3.0 0.00 0.00 0.00 87 1012.9
20260904110600 78 191 0.0 3.0 0.00 0.00 0.00 86 1012.8
20260904110116 78 0 0.0 4.0 0.00 0.00 0.00 86 1012.7
20260904105558 79 215 0.0 4.0 0.00 0.00 0.00 85 1012.5
20260904105058 79 56 1.0 4.0 0.00 0.00 0.00 85 1012.7
20260904104605 79 181 1.0 6.0 0.00 0.00 0.00 84 1012.5
20260904104058 79 173 0.0 7.0 0.00 0.00 0.00 84 1012.5
20260904103559 79 0 2.0 7.0 0.00 0.00 0.00 85 1012.6
20260904103107 78 79 1.0 3.0 0.00 0.00 0.00 85 1012.7
20260904102554 78 39 1.0 3.0 0.00 0.00 0.00 85 1012.7
20260904102053 78 0 1.0 4.0 0.00 0.00 0.00 85 1012.5
20260904101603 78 0 1.0 4.0 0.00 0.00 0.00 85 1012.4
20260904101054 78 0 0.0 4.0 0.00 0.00 0.00 86 1012.5
20260904100554 78 0 0.0 4.0 0.00 0.00 0.00 86 1012.6
20260904100107 78 0 0.0 3.0 0.00 0.00 0.00 86 1012.4
20260904095555 78 0 0.0 3.0 0.00 0.00 0.00 86 1012.6
20260904095055 78 0 1.0 3.0 0.00 0.00 0.00 85 1012.5
20260904094615 79 5 0.0 4.0 0.00 0.00 0.00 85 1012.3
20260904094055 79 0 0.0 4.0 0.00 0.00 0.00 85 1012.3
20260904093554 79 76 1.0 4.0 0.00 0.00 0.00 85 1012.4
20260904093104 79 119 1.0 7.0 0.00 0.00 0.00 85 1012.4
20260904092558 79 0 1.0 7.0 0.00 0.00 0.00 84 1012.3
20260904092054 79 39 0.0 4.0 0.00 0.00 0.00 84 1012.4
20260904091606 79 80 1.0 4.0 0.00 0.00 0.00 84 1012.5
20260904091055 79 89 0.0 4.0 0.00 0.00 0.00 84 1012.6
20260904090554 79 74 2.0 5.0 0.00 0.00 0.00 84 1012.5
20260904090107 79 64 2.0 6.0 0.00 0.00 0.00 84 1012.5
20260904085557 79 63 1.0 6.0 0.00 0.00 0.00 84 1012.5
20260904085054 79 240 2.0 5.0 0.00 0.00 0.00 84 1012.5
20260904084604 79 58 2.0 5.0 0.00 0.00 0.00 84 1012.3
20260904084055 79 53 1.0 4.0 0.00 0.00 0.00 84 1012.4
20260904083558 79 140 1.0 5.0 0.00 0.00 0.00 84 1012.4
20260904083108 79 46 1.0 5.0 0.00 0.00 0.00 84 1012.4
20260904082558 79 31 1.0 7.0 0.00 0.00 0.00 84 1012.3
20260904082057 79 129 2.0 7.0 0.00 0.00 0.00 84 1012.4
20260904081642 79 55 1.0 4.0 0.00 0.00 0.00 84 1012.3
20260904081057 79 54 2.0 6.0 0.00 0.00 0.00 85 1012.3
20260904080554 79 76 2.0 6.0 0.00 0.00 0.00 85 1012.3
20260904080105 79 243 1.0 7.0 0.00 0.00 0.00 85 1012.4
20260904075554 79 140 2.0 7.0 0.00 0.00 0.00 85 1012.2
20260904075055 79 233 1.0 4.0 0.00 0.00 0.00 85 1012.4
20260904074619 79 50 0.0 5.0 0.00 0.00 0.00 85 1012.3
20260904074054 79 40 1.0 5.0 0.00 0.00 0.00 85 1012.4
20260904073554 79 49 1.0 5.0 0.00 0.00 0.00 85 1012.4
20260904073112 79 65 1.0 3.0 0.00 0.00 0.00 85 1012.6
20260904072557 79 51 0.0 4.0 0.00 0.00 0.00 85 1012.5
20260904072056 79 59 1.0 4.0 0.00 0.00 0.00 84 1012.7
20260904071608 79 0 1.0 4.0 0.00 0.00 0.00 84 1012.9
20260904071054 79 121 1.0 4.0 0.00 0.00 0.00 84 1012.8
20260904070555 79 102 1.0 4.0 0.00 0.00 0.00 84 1012.9
20260904070124 79 126 1.0 4.0 0.00 0.00 0.00 84 1012.9
20260904065554 79 30 1.0 3.0 0.00 0.00 0.00 84 1012.9
20260904065054 79 78 1.0 4.0 0.00 0.00 0.00 84 1012.9
20260904064606 79 163 1.0 4.0 0.00 0.00 0.00 84 1013.0
20260904064054 79 0 1.0 4.0 0.00 0.00 0.00 84 1012.8
20260904063554 79 79 1.0 4.0 0.00 0.00 0.00 84 1012.6
20260904063103 79 171 1.0 4.0 0.00 0.00 0.00 84 1012.8
20260904062554 79 57 1.0 4.0 0.00 0.00 0.00 84 1012.9
20260904062054 79 147 1.0 3.0 0.00 0.00 0.00 84 1013.0
20260904061608 79 57 0.0 5.0 0.00 0.00 0.00 84 1012.9
20260904061055 79 167 1.0 5.0 0.00 0.00 0.00 83 1012.8
20260904060555 79 80 0.0 4.0 0.00 0.00 0.00 83 1012.8
20260904060116 79 0 1.0 4.0 0.00 0.00 0.00 83 1012.8